Skip Page Navigation
NASA JPL Caltech
NASA Logo - Jet Propulsion Laboratory + View the NASA Portal
+ Center for Near-Earth Object Studies
JPL Home Earth Solar System Stars & Galaxies Technology
JPL Solar System Dynamics
BODIES ORBITS EPHEMERIDES TOOLS PHYSICAL DATA DISCOVERY FAQ SITE MAP
JPL Small-Body Database Browser
Search: [ help ]  
100458 (1996 TP3)
Classification: Main-belt Asteroid          SPK-ID: 2100458
Ephemeris | Orbit Diagram | Orbital Elements | Mission Design | Physical Parameters | Discovery Circumstances | Close-Approach Data ]

[ show orbit diagram ]
Orbital Elements at Epoch 2459000.5 (2020-May-31.0) TDB
Reference: JPL 18 (heliocentric ecliptic J2000)
 Element Value Uncertainty (1-sigma)   Units 
e .2394070421250948 9.1287e-08  
a 2.365664136514091 9.403e-09 au
q 1.799307482929836 2.1608e-07 au
i 23.77248685615345 7.4398e-06 deg
node 357.971247976944 1.1775e-05 deg
peri 41.29640336975967 1.934e-05 deg
M 157.1311039211487 1.0338e-05 deg
tp 2458420.420234208633
(2018-Oct-28.92023421)
3.7639e-05 TDB
period 1329.009409809062
3.64
7.9238e-06
2.169e-08
d
yr
n .2708784432547554 1.615e-09 deg/d
Q 2.932020790098347 1.1654e-08 au
  Orbit Determination Parameters
   # obs. used (total)      662  
   data-arc span      8628 days (23.62 yr)  
   first obs. used      1996-09-13  
   last obs. used      2020-04-28  
   planetary ephem.      DE431  
   SB-pert. ephem.      SB431-N16  
   condition code      0  
   norm. resid. RMS      .50133  
   source      ORB  
   producer      Otto Matic  
   solution date      2020-May-20 17:52:53  

Additional Information
 Earth MOID = .846023 au 
 Jupiter MOID = 2.66862 au 
 T_jup = 3.398 
[ show covariance matrix ]

Ephemeris | Orbit Diagram | Orbital Elements | Mission Design | Physical Parameters | Discovery Circumstances | Close-Approach Data ]

Physical Parameter Table
Parameter Symbol Value Units Sigma Reference Notes
absolute magnitude H 15.6   n/a MPO459471  

100458 (1996 TP3)          Discovered 1996-Oct-04 by Laurie, S. P. at Church Stretton
Reference: 20051019/Numbers.arcLast Updated: 2005-10-26

[ show close-approach data ]
Ephemeris | Orbit Diagram | Orbital Elements | Mission Design | Physical Parameters | Discovery Circumstances | Close-Approach Data ]
ABOUT SSD CREDITS/AWARDS PRIVACY/COPYRIGHT GLOSSARY LINKS
FirstGov 2020-Oct-24 05:10 UT
(server date/time)  
NASA Home Page
Site Manager:   Ryan S. Park
Webmaster  Alan B. Chamberlin